| time (UTC) | temp F | wind direction | speed MPH | gust MPH | rain 1hr in | rain 24hr in | rain mn in | humidity % | barometer mb |
| 20260506210007 | 64 | 299 | 8.0 | 15.0 | 0.00 | 0.00 | 0.00 | 71 | 1018.3 |
| 20260506204511 | 64 | 267 | 9.0 | 16.0 | 0.00 | 0.00 | 0.00 | 72 | 1018.4 |
| 20260506203021 | 64 | 268 | 9.0 | 16.0 | 0.00 | 0.00 | 0.00 | 72 | 1018.4 |
| 20260506201529 | 64 | 261 | 9.0 | 17.0 | 0.00 | 0.00 | 0.00 | 72 | 1018.5 |
| 20260506200013 | 64 | 292 | 6.0 | 13.0 | 0.00 | 0.00 | 0.00 | 72 | 1018.6 |
| 20260506194515 | 63 | 279 | 10.0 | 16.0 | 0.00 | 0.00 | 0.00 | 73 | 1018.6 |
| 20260506193013 | 63 | 288 | 9.0 | 14.0 | 0.00 | 0.00 | 0.00 | 73 | 1018.6 |
| 20260506191516 | 63 | 270 | 9.0 | 17.0 | 0.00 | 0.00 | 0.00 | 72 | 1018.7 |
| 20260506190015 | 63 | 294 | 5.0 | 14.0 | 0.00 | 0.00 | 0.00 | 74 | 1018.8 |
| 20260506184516 | 63 | 292 | 4.0 | 16.0 | 0.00 | 0.00 | 0.00 | 75 | 1018.8 |
| 20260506183028 | 62 | 256 | 8.0 | 14.0 | 0.00 | 0.00 | 0.00 | 75 | 1019.1 |
| 20260506181519 | 63 | 292 | 5.0 | 10.0 | 0.00 | 0.00 | 0.00 | 74 | 1019.1 |
| 20260506180019 | 63 | 242 | 3.0 | 8.0 | 0.00 | 0.00 | 0.00 | 73 | 1019.3 |
| 20260506174517 | 63 | 296 | 2.0 | 7.0 | 0.00 | 0.00 | 0.00 | 71 | 1019.3 |
| 20260506173015 | 61 | 307 | 3.0 | 7.0 | 0.00 | 0.00 | 0.00 | 73 | 1019.3 |
| 20260506171526 | 61 | 289 | 4.0 | 9.0 | 0.00 | 0.00 | 0.00 | 73 | 1019.4 |
| 20260506170023 | 60 | 296 | 5.0 | 7.0 | 0.00 | 0.00 | 0.00 | 74 | 1019.3 |
| 20260506164520 | 61 | 241 | 2.0 | 5.0 | 0.00 | 0.00 | 0.00 | 74 | 1019.3 |
| 20260506163019 | 61 | 287 | 2.0 | 7.0 | 0.00 | 0.00 | 0.00 | 74 | 1019.2 |
| 20260506161522 | 62 | 300 | 2.0 | 4.0 | 0.00 | 0.00 | 0.00 | 72 | 1019.3 |
| 20260506160022 | 61 | 261 | 1.0 | 3.0 | 0.00 | 0.00 | 0.00 | 76 | 1019.3 |
| 20260506154511 | 61 | 267 | 1.0 | 3.0 | 0.00 | 0.00 | 0.00 | 76 | 1019.3 |
| 20260506153014 | 59 | 259 | 1.0 | 2.0 | 0.00 | 0.00 | 0.00 | 77 | 1019.5 |
| 20260506151513 | 59 | 279 | 0.0 | 2.0 | 0.00 | 0.00 | 0.00 | 79 | 1019.6 |
| 20260506150013 | 58 | 288 | 0.0 | 2.0 | 0.00 | 0.00 | 0.00 | 80 | 1019.7 |
| 20260506144515 | 56 | 100 | 0.0 | 2.0 | 0.00 | 0.00 | 0.00 | 83 | 1019.7 |
| 20260506143028 | 54 | 100 | 0.0 | 0.0 | 0.00 | 0.00 | 0.00 | 86 | 1019.5 |
| 20260506141520 | 53 | 100 | 0.0 | 2.0 | 0.00 | 0.00 | 0.00 | 88 | 1019.4 |
| 20260506140022 | 51 | 67 | 0.0 | 1.0 | 0.00 | 0.00 | 0.00 | 89 | 1019.2 |
| 20260506134521 | 50 | 67 | 0.0 | 2.0 | 0.00 | 0.00 | 0.00 | 90 | 1019.3 |
| 20260506133020 | 48 | 67 | 0.0 | 2.0 | 0.00 | 0.00 | 0.00 | 89 | 1019.2 |
| 20260506131524 | 48 | 67 | 0.0 | 0.0 | 0.00 | 0.00 | 0.00 | 89 | 1018.9 |
| 20260506130025 | 49 | 67 | 0.0 | 2.0 | 0.00 | 0.00 | 0.00 | 89 | 1018.7 |
| 20260506124525 | 49 | 67 | 0.0 | 2.0 | 0.00 | 0.00 | 0.00 | 89 | 1018.6 |
| 20260506123030 | 49 | 67 | 0.0 | 2.0 | 0.00 | 0.00 | 0.00 | 89 | 1018.5 |
| 20260506121527 | 50 | 67 | 0.0 | 2.0 | 0.00 | 0.00 | 0.00 | 89 | 1018.6 |
| 20260506120005 | 49 | 67 | 1.0 | 2.0 | 0.00 | 0.00 | 0.00 | 90 | 1018.6 |
| 20260506114508 | 49 | 67 | 0.0 | 2.0 | 0.00 | 0.00 | 0.00 | 89 | 1018.7 |
| 20260506113018 | 49 | 67 | 0.0 | 2.0 | 0.00 | 0.00 | 0.00 | 89 | 1018.8 |
| 20260506111508 | 50 | 67 | 0.0 | 1.0 | 0.00 | 0.00 | 0.00 | 89 | 1018.8 |
| 20260506110013 | 50 | 67 | 0.0 | 2.0 | 0.00 | 0.00 | 0.00 | 89 | 1018.7 |
| 20260506104511 | 50 | 67 | 0.0 | 0.0 | 0.00 | 0.00 | 0.00 | 89 | 1018.8 |
| 20260506103014 | 50 | 67 | 0.0 | 0.0 | 0.00 | 0.00 | 0.00 | 89 | 1018.7 |
| 20260506101516 | 51 | 67 | 0.0 | 1.0 | 0.00 | 0.00 | 0.00 | 88 | 1018.7 |
| 20260506100014 | 51 | 67 | 0.0 | 2.0 | 0.00 | 0.00 | 0.00 | 88 | 1018.5 |
| 20260506094519 | 52 | 67 | 0.0 | 2.0 | 0.00 | 0.00 | 0.00 | 88 | 1018.5 |
| 20260506093020 | 52 | 67 | 0.0 | 0.0 | 0.00 | 0.00 | 0.00 | 88 | 1018.6 |
| 20260506091518 | 52 | 67 | 0.0 | 2.0 | 0.00 | 0.00 | 0.00 | 88 | 1018.6 |
| 20260506090031 | 52 | 72 | 0.0 | 2.0 | 0.00 | 0.00 | 0.00 | 88 | 1018.8 |
| 20260506084523 | 52 | 44 | 0.0 | 2.0 | 0.00 | 0.00 | 0.00 | 88 | 1018.9 |
| 20260506083020 | 53 | 44 | 0.0 | 2.0 | 0.00 | 0.00 | 0.00 | 88 | 1018.9 |
| 20260506081522 | 54 | 44 | 0.0 | 2.0 | 0.00 | 0.00 | 0.00 | 87 | 1019.1 |
| 20260506073025 | 54 | 350 | 0.0 | 2.0 | 0.00 | 0.00 | 0.00 | 86 | 1018.9 |
| 20260506071526 | 54 | 51 | 0.0 | 2.0 | 0.00 | 0.00 | 0.00 | 85 | 1018.8 |
| 20260506061543 | 55 | 5 | 0.0 | 2.0 | 0.00 | 0.00 | 0.00 | 83 | 1018.4 |
| 20260506044530 | 56 | 333 | 1.0 | 4.0 | 0.00 | 0.00 | 0.00 | 80 | 1017.8 |
| 20260506043035 | 56 | 313 | 1.0 | 3.0 | 0.00 | 0.00 | 0.00 | 79 | 1017.7 |
| 20260506041525 | 57 | 360 | 1.0 | 2.0 | 0.00 | 0.00 | 0.00 | 78 | 1017.6 |
| 20260506040019 | 57 | 351 | 1.0 | 4.0 | 0.00 | 0.00 | 0.00 | 77 | 1017.3 |
| 20260506034527 | 57 | 325 | 2.0 | 4.0 | 0.00 | 0.00 | 0.00 | 76 | 1017.2 |
| 20260506033025 | 58 | 9 | 1.0 | 6.0 | 0.00 | 0.00 | 0.00 | 75 | 1016.9 |
| 20260506031524 | 58 | 306 | 2.0 | 8.0 | 0.00 | 0.00 | 0.00 | 74 | 1016.5 |
| 20260506030029 | 58 | 352 | 4.0 | 8.0 | 0.00 | 0.00 | 0.00 | 73 | 1016.1 |
| 20260506024538 | 59 | 35 | 7.0 | 9.0 | 0.00 | 0.00 | 0.00 | 72 | 1015.9 |
| 20260506023026 | 60 | 16 | 3.0 | 9.0 | 0.00 | 0.00 | 0.00 | 69 | 1015.8 |
| 20260506021526 | 61 | 346 | 3.0 | 8.0 | 0.00 | 0.00 | 0.00 | 66 | 1015.7 |
| 20260506020006 | 61 | 324 | 4.0 | 10.0 | 0.00 | 0.00 | 0.00 | 64 | 1015.5 |
| 20260506014508 | 61 | 325 | 3.0 | 9.0 | 0.00 | 0.00 | 0.00 | 70 | 1015.5 |
| 20260506013012 | 62 | 276 | 4.0 | 10.0 | 0.00 | 0.00 | 0.00 | 69 | 1015.4 |
| 20260506011510 | 62 | 310 | 5.0 | 13.0 | 0.00 | 0.00 | 0.00 | 69 | 1015.4 |
| 20260506010012 | 61 | 265 | 6.0 | 13.0 | 0.00 | 0.00 | 0.00 | 71 | 1015.4 |
| 20260506004514 | 61 | 292 | 8.0 | 14.0 | 0.00 | 0.00 | 0.00 | 73 | 1015.4 |
| 20260506003016 | 62 | 252 | 5.0 | 14.0 | 0.00 | 0.00 | 0.00 | 72 | 1015.3 |
| 20260506001515 | 62 | 277 | 7.0 | 15.0 | 0.00 | 0.00 | 0.00 | 72 | 1015.2 |
| 20260506000019 | 62 | 227 | 7.0 | 14.0 | 0.00 | 0.00 | 0.00 | 73 | 1015.1 |
| 20260505234520 | 62 | 281 | 7.0 | 15.0 | 0.00 | 0.00 | 0.00 | 72 | 1015.2 |
| 20260505233022 | 63 | 306 | 7.0 | 16.0 | 0.00 | 0.00 | 0.00 | 71 | 1015.2 |
| 20260505231523 | 62 | 252 | 9.0 | 18.0 | 0.00 | 0.00 | 0.00 | 72 | 1015.1 |
| 20260505230020 | 62 | 287 | 10.0 | 15.0 | 0.00 | 0.00 | 0.00 | 71 | 1015.3 |
| 20260505224527 | 62 | 277 | 9.0 | 17.0 | 0.00 | 0.00 | 0.00 | 70 | 1015.3 |
| 20260505223027 | 62 | 302 | 6.0 | 16.0 | 0.00 | 0.00 | 0.00 | 71 | 1015.5 |
| 20260505221524 | 63 | 269 | 7.0 | 15.0 | 0.00 | 0.00 | 0.00 | 70 | 1015.7 |
| 20260505220025 | 61 | 280 | 8.0 | 15.0 | 0.00 | 0.00 | 0.00 | 72 | 1015.9 |
| 20260505214532 | 62 | 298 | 6.0 | 14.0 | 0.00 | 0.00 | 0.00 | 71 | 1016.1 |
| 20260505213024 | 61 | 286 | 5.0 | 16.0 | 0.00 | 0.00 | 0.00 | 72 | 1016.4 |
| 20260505211525 | 62 | 271 | 7.0 | 16.0 | 0.00 | 0.00 | 0.00 | 70 | 1016.4 |